When you browse on this site, cookies collect data to enhance your experience and personalize the content and advertising you see.
Visit our Privacy Policy to learn more. By continuing to use the site, you agree to this use of cookies and data.
  • In Switzerland
  • List of Countries
  • For 7 days
  • Water Temperature
  • Weather Map
  • Weather Widgets
  • user-avatar
    Login

    Hourly Weather Tvericy

    Today, 24 August, Saturday

    Time Temperature Precipitation Wind Pressure Humidity
    00:00 +13°C° 0 mm 1 mps 750 mmHg 89%
    01:00 +13°C° 0 mm 1 mps 750 mmHg 89%
    02:00 +12°C° 0 mm 1 mps 750 mmHg 89%
    03:00 +12°C° 0 mm 1 mps 750 mmHg 90%
    04:00 +12°C° 0 mm 1 mps 750 mmHg 91%
    05:00 +12°C° 0 mm 1 mps 750 mmHg 91%
    06:00 +14°C° 0 mm 2 mps 750 mmHg 86%
    07:00 +15°C° 0 mm 2 mps 750 mmHg 81%
    08:00 +17°C° 0 mm 2 mps 750 mmHg 75%
    09:00 +19°C° 0 mm 2 mps 750 mmHg 71%
    10:00 +20°C° 0 mm 3 mps 750 mmHg 66%
    11:00 +21°C° 0 mm 3 mps 750 mmHg 61%
    12:00 +22°C° 0 mm 3 mps 749 mmHg 60%
    13:00 +22°C° 0 mm 4 mps 749 mmHg 59%
    14:00 +23°C° 0 mm 4 mps 749 mmHg 58%
    15:00 +22°C° 0 mm 3 mps 749 mmHg 62%
    16:00 +22°C° 0 mm 3 mps 748 mmHg 66%
    17:00 +23°C° 0 mm 2 mps 748 mmHg 70%
    18:00 +20°C° 0 mm 2 mps 748 mmHg 76%
    19:00 +18°C° 0 mm 2 mps 748 mmHg 82%
    20:00 +17°C° 0 mm 2 mps 748 mmHg 88%
    21:00 +16°C° 0 mm 2 mps 748 mmHg 90%
    22:00 +15°C° 0 mm 2 mps 748 mmHg 93%
    23:00 +15°C° 0 mm 2 mps 748 mmHg 95%

    Tomorrow, 25 August, Sunday

    Time Temperature Precipitation Wind Pressure Humidity
    00:00 +14°C° 0 mm 1 mps 749 mmHg 95%
    01:00 +14°C° 0 mm 1 mps 749 mmHg 95%
    02:00 +14°C° 0 mm 1 mps 749 mmHg 95%
    03:00 +13°C° 0 mm 1 mps 749 mmHg 95%
    04:00 +13°C° 0 mm 1 mps 749 mmHg 95%
    05:00 +12°C° 0 mm 1 mps 749 mmHg 95%
    06:00 +14°C° 0 mm 1 mps 750 mmHg 89%
    07:00 +16°C° 0 mm 2 mps 750 mmHg 83%
    08:00 +17°C° 0 mm 2 mps 750 mmHg 78%
    09:00 +18°C° 0 mm 2 mps 750 mmHg 71%
    10:00 +19°C° 0 mm 2 mps 751 mmHg 64%
    11:00 +21°C° 0 mm 2 mps 751 mmHg 57%
    12:00 +21°C° 0 mm 2 mps 751 mmHg 55%
    13:00 +21°C° 0 mm 2 mps 751 mmHg 53%
    14:00 +23°C° 0 mm 2 mps 751 mmHg 51%
    15:00 +21°C° 0 mm 2 mps 751 mmHg 56%
    16:00 +22°C° 0 mm 1 mps 750 mmHg 61%
    17:00 +22°C° 0 mm 1 mps 750 mmHg 66%
    18:00 +20°C° 0 mm 1 mps 751 mmHg 72%
    19:00 +18°C° 0 mm 1 mps 751 mmHg 78%
    20:00 +15°C° 0 mm 1 mps 751 mmHg 84%
    21:00 +14°C° 0 mm 1 mps 751 mmHg 87%
    22:00 +13°C° 0 mm 1 mps 751 mmHg 89%
    23:00 +13°C° 0 mm 1 mps 751 mmHg 92%

    Day after tomorrow, 26 August, Monday

    Time Temperature Precipitation Wind Pressure Humidity
    00:00 +13°C° 0 mm 1 mps 751 mmHg 92%
    01:00 +12°C° 0 mm 1 mps 751 mmHg 93%
    02:00 +12°C° 0 mm 1 mps 751 mmHg 94%
    03:00 +12°C° 0 mm 1 mps 751 mmHg 94%
    04:00 +10°C° 0 mm 0 mps 751 mmHg 94%
    05:00 +10°C° 0 mm 0 mps 751 mmHg 94%
    06:00 +12°C° 0 mm 0 mps 751 mmHg 88%
    07:00 +14°C° 0 mm 0 mps 751 mmHg 82%
    08:00 +16°C° 0 mm 0 mps 751 mmHg 76%
    09:00 +18°C° 0 mm 0 mps 751 mmHg 70%
    10:00 +21°C° 0 mm 1 mps 751 mmHg 64%
    11:00 +23°C° 0 mm 1 mps 751 mmHg 59%
    12:00 +23°C° 0 mm 1 mps 751 mmHg 57%
    13:00 +23°C° 0 mm 1 mps 750 mmHg 56%
    14:00 +23°C° 0 mm 2 mps 750 mmHg 55%
    15:00 +23°C° 0 mm 2 mps 750 mmHg 59%
    16:00 +21°C° 0 mm 2 mps 749 mmHg 64%
    17:00 +22°C° 0 mm 1 mps 749 mmHg 69%
    18:00 +20°C° 0 mm 1 mps 749 mmHg 75%
    19:00 +18°C° 0 mm 1 mps 748 mmHg 80%
    20:00 +15°C° 0 mm 1 mps 748 mmHg 86%
    21:00 +15°C° 0 mm 1 mps 748 mmHg 86%
    22:00 +14°C° 0 mm 1 mps 748 mmHg 87%
    23:00 +14°C° 0 mm 1 mps 748 mmHg 87%

    27 August, Tuesday

    Time Temperature Precipitation Wind Pressure Humidity
    00:00 +14°C° 0 mm 2 mps 748 mmHg 88%
    01:00 +14°C° 0 mm 2 mps 748 mmHg 88%
    02:00 +14°C° 0 mm 2 mps 747 mmHg 89%
    03:00 +14°C° 0 mm 2 mps 747 mmHg 91%
    04:00 +14°C° 0 mm 2 mps 747 mmHg 94%
    05:00 +13°C° 0 mm 2 mps 747 mmHg 96%
    06:00 +15°C° 0 mm 2 mps 747 mmHg 92%
    07:00 +16°C° 0 mm 3 mps 747 mmHg 88%
    08:00 +18°C° 0 mm 3 mps 746 mmHg 84%
    09:00 +19°C° 0 mm 3 mps 746 mmHg 77%
    10:00 +21°C° 0 mm 4 mps 746 mmHg 70%
    11:00 +22°C° 0 mm 4 mps 746 mmHg 64%
    12:00 +22°C° 0 mm 4 mps 746 mmHg 62%
    13:00 +22°C° 0 mm 5 mps 746 mmHg 61%
    14:00 +23°C° 0 mm 5 mps 746 mmHg 60%
    15:00 +22°C° 0 mm 4 mps 746 mmHg 62%
    16:00 +21°C° 0 mm 4 mps 746 mmHg 63%
    17:00 +20°C° 0 mm 3 mps 746 mmHg 65%
    18:00 +18°C° 0 mm 3 mps 746 mmHg 69%
    19:00 +16°C° 0 mm 3 mps 747 mmHg 73%
    20:00 +14°C° 0 mm 3 mps 747 mmHg 76%
    21:00 +13°C° 0 mm 3 mps 747 mmHg 80%
    22:00 +12°C° 0 mm 3 mps 748 mmHg 84%
    23:00 +12°C° 0 mm 2 mps 748 mmHg 88%

    28 August, Wednesday

    Time Temperature Precipitation Wind Pressure Humidity
    00:00 +12°C° 0 mm 2 mps 748 mmHg 90%
    01:00 +10°C° 0 mm 2 mps 748 mmHg 93%
    02:00 +9°C° 0 mm 2 mps 749 mmHg 95%
    03:00 +10°C° 0 mm 1 mps 749 mmHg 95%
    04:00 +9°C° 0 mm 1 mps 749 mmHg 95%
    05:00 +9°C° 0 mm 1 mps 749 mmHg 95%
    06:00 +10°C° 0 mm 1 mps 750 mmHg 86%
    07:00 +12°C° 0 mm 2 mps 750 mmHg 77%
    08:00 +13°C° 0 mm 2 mps 750 mmHg 69%
    09:00 +15°C° 0 mm 2 mps 750 mmHg 62%
    10:00 +16°C° 0 mm 3 mps 750 mmHg 55%
    11:00 +17°C° 0 mm 3 mps 750 mmHg 49%
    12:00 +17°C° 0 mm 3 mps 750 mmHg 47%
    13:00 +18°C° 0 mm 3 mps 750 mmHg 46%
    14:00 +18°C° 0 mm 3 mps 750 mmHg 45%
    15:00 +18°C° 0 mm 3 mps 749 mmHg 50%
    16:00 +18°C° 0 mm 2 mps 749 mmHg 55%
    17:00 +17°C° 0 mm 2 mps 749 mmHg 59%
    18:00 +15°C° 0 mm 2 mps 749 mmHg 63%
    19:00 +13°C° 0 mm 1 mps 749 mmHg 67%
    20:00 +11°C° 0 mm 1 mps 749 mmHg 71%
    21:00 +10°C° 0 mm 1 mps 750 mmHg 72%
    22:00 +10°C° 0 mm 1 mps 750 mmHg 73%
    23:00 +9°C° 0 mm 1 mps 750 mmHg 73%

    29 August, Thursday

    Time Temperature Precipitation Wind Pressure Humidity
    00:00 +9°C° 0 mm 1 mps 750 mmHg 74%
    01:00 +8°C° 0 mm 1 mps 750 mmHg 75%
    02:00 +7°C° 0 mm 1 mps 750 mmHg 75%
    03:00 +7°C° 0 mm 1 mps 750 mmHg 75%
    04:00 +6°C° 0 mm 0 mps 750 mmHg 76%
    05:00 +6°C° 0 mm 0 mps 750 mmHg 76%
    06:00 +8°C° 0 mm 0 mps 750 mmHg 70%
    07:00 +11°C° 0 mm 1 mps 750 mmHg 64%
    08:00 +13°C° 0 mm 1 mps 750 mmHg 58%
    09:00 +15°C° 0 mm 1 mps 750 mmHg 54%
    10:00 +16°C° 0 mm 1 mps 750 mmHg 49%
    11:00 +19°C° 0 mm 1 mps 750 mmHg 45%
    12:00 +19°C° 0 mm 1 mps 750 mmHg 47%
    13:00 +20°C° 0 mm 1 mps 750 mmHg 48%
    14:00 +21°C° 0 mm 1 mps 749 mmHg 49%
    15:00 +20°C° 0 mm 1 mps 749 mmHg 55%
    16:00 +20°C° 0 mm 1 mps 749 mmHg 61%
    17:00 +19°C° 0 mm 1 mps 749 mmHg 68%
    18:00 +18°C° 0 mm 1 mps 749 mmHg 73%
    19:00 +15°C° 0 mm 1 mps 749 mmHg 79%
    20:00 +13°C° 0 mm 1 mps 749 mmHg 85%
    21:00 +13°C° 0 mm 1 mps 749 mmHg 87%
    22:00 +12°C° 0 mm 1 mps 749 mmHg 88%
    23:00 +12°C° 0 mm 1 mps 749 mmHg 90%
    Show more